Regional Weather Roundup
Issued by NWS

Home | Current Version | Previous Version | Graphics & Text | Print | Product List | Glossary On
Versions: 1 2 3 4 5 6 7 8 9 10 11 12 13 14 15 16 17 18 19 20 21 22 23 24 25 26 27 28 29 30 31 32 33 34 35 36 37 38 39 40 41 42 43 44 45 46 47 48 49 50
000
ASUS43 KDTX 241901
RWRMI
MICHIGAN HOURLY REGIONAL WEATHER ROUNDUP
NATIONAL WEATHER SERVICE DETROIT/PONTIAC MI
300 PM EDT SUN MAY 24 2015

NOTE: "FAIR" INDICATES FEW OR NO CLOUDS BELOW 12,000 FEET WITH NO
SIGNIFICANT WEATHER AND/OR OBSTRUCTION TO VISIBILITY.

MIZ047>049-052>055-059>063-066>070-074>076-081>083-242000-
SOUTHEAST LOWER MICHIGAN

CITY           SKY/WX    TMP DP  RH WIND       PRES   REMARKS
ADRIAN         CLOUDY    77  51  40 S6        30.20F
ALMA           CLOUDY    73  53  50 SW6       30.19F
ANN ARBOR      CLOUDY    76  53  44 SW6       30.20F
BAD AXE        CLOUDY    79  43  27 SW10G16   30.18F
CARO           CLOUDY    77  49  37 SW15G21   30.18F
DETROIT CITY   CLOUDY    77  48  35 SW9       30.20F
DETROIT        CLOUDY    78  51  38 S8        30.20F
FLINT          CLOUDY    76  50  40 VRB7      30.20F
GROSSE ILE     CLOUDY    73  52  46 CALM      30.19F
HILLSDALE      CLOUDY    75  52  44 SE6       30.20F
HOWELL         LGT RAIN  75  49  40 CALM      30.20F

CITY           SKY/WX    TMP DP  RH WIND       PRES   REMARKS
JACKSON        CLOUDY    73  54  51 S7        30.19F
LAMBERTVILLE   CLOUDY    79  50  36 SW7       30.20F
LANSING        CLOUDY    74  51  44 S8        30.19F
LAPEER         LGT RAIN  74  48  38 W7        30.21F
MASON          CLOUDY    72  53  50 S8        30.19F
MONROE         CLOUDY    75  52  43 SE6       30.18F
MT. CLEMENS    CLOUDY    74  54  48 S8        30.18F
PONTIAC        CLOUDY    75  47  36 S6        30.20F
PORT HOPE        N/A     65  56  72 N3        30.16F
PORT HURON     CLOUDY    77  52  41 SW6       30.20F
TRI CITIES     CLOUDY    75  47  36 SW12      30.19F
MIDLAND        FAIR      76  44  32 SW9G20    30.18S
TROY           CLOUDY    78  43  28 S8        30.22F
SAGINAW HB     CLOUDY    75  45  33 SW9       30.19S
$$
MIZ043>046-050>051-056>058-064>065-071>073-077>080-242000-
SOUTHWEST LOWER MICHIGAN

CITY           SKY/WX    TMP DP  RH WIND       PRES   REMARKS
BATTLE CREEK   CLOUDY    75  52  44 S8        30.18F
BENTON HARBOR  CLOUDY    73  55  53 E9        30.13F
BIG RAPIDS     LGT RAIN  67  45  44 CALM      30.19F
COLDWATER      CLOUDY    72  56  56 S7        30.18F
FREMONT        DRIZZLE   66  58  75 N3        30.18F
HOLLAND        LGT RAIN  71  53  52 E5        30.17F
GRAND RAPIDS   CLOUDY    73  46  38 CALM      30.18F
IONIA          PTSUNNY   75  45  34 S6        30.17F
KALAMAZOO      CLOUDY    74  53  48 S5        30.17F
LUDINGTON      LGT RAIN  61  55  81 CALM      30.19F
MARSHALL       CLOUDY    75  54  47 S6        30.17F
MOUNT PLEASANT LGT RAIN  71  49  45 SW6       30.19S
MUSKEGON       LGT RAIN  64  49  57 NW5       30.19F
SOUTH HAVEN    CLOUDY    72  57  58 E7        30.14F
$$
MIZ016>042-242000-
NORTHERN LOWER MICHIGAN

CITY           SKY/WX    TMP DP  RH WIND       PRES   REMARKS
ALPENA         CLOUDY    74  46  36 E10       30.13F
BEAVER ISLAND  CLOUDY    64  42  44 SW9       30.14S
BELLAIRE       CLOUDY    78  44  28 W7        30.12F
CADILLAC       CLOUDY    73  49  42 SW10G18   30.17F
CHARLEVOIX     CLOUDY    70  45  41 W17       30.17R
FRANKFORT      CLOUDY    65  45  48 SW6       30.17F
GAYLORD        CLOUDY    77  44  30 SW13      30.13F
HARBOR SPRINGS CLOUDY    67  43  42 SW5       30.13F
HOUGHTON LAKE  CLOUDY    75  46  35 SW12      30.17F
MANISTEE       CLOUDY    70  48  46 SW9G16    30.18S
OSCODA         CLOUDY    79  50  35 SW12      30.14F
PELLSTON       CLOUDY    77  43  29 SW9       30.12F
ROGERS CITY    CLOUDY    64  45  51 NE5       30.14F
TRAVERSE CITY  CLOUDY    77  48  35 W12G21    30.13S
$$
MIZ007>008-015-242000-
EASTERN UPPER MICHIGAN

CITY           SKY/WX    TMP DP  RH WIND       PRES   REMARKS
KINROSS        PTSUNNY   73  43  33 SW7       30.11F
MACKINAC ISLAN CLOUDY    66  40  38 W6        30.12F
NEWBERRY       PTSUNNY   73  46  38 SW8       30.10F
S. S. MARIE    PTSUNNY   78  45  30 W8        30.08F
$$
MIZ004>006-011>014-085-242000-
CENTRAL UPPER MICHIGAN

CITY           SKY/WX    TMP DP  RH WIND       PRES   REMARKS
MANISTIQUE     CLOUDY    56  41  58 S10G17    30.12S
ESCANABA       CLOUDY    63  46  55 S12       30.09F
MENOMINEE      CLOUDY    70  52  52 SW15G23   30.09F
SAWYER-GWINN   PTSUNNY   77  43  29 S8        30.07F
$$
MIZ001>003-009>011-084-242000-
WESTERN UPPER MICHIGAN

CITY           SKY/WX    TMP DP  RH WIND       PRES   REMARKS
IRON MOUNTAIN  CLOUDY    77  46  33 S8        30.05F
HOUGHTON       PTSUNNY   74  44  34 VRB6      30.05F
COPPER HARBOR    N/A     55  42  61 N16       30.03F
IRONWOOD       CLOUDY    73  46  38 SW3       30.01F
$$

ABBREVIATIONS USED IN REMARKS
   TC - TEMPERATURE IN CELSIUS
  WCI - WIND CHILL INDEX
   HX - HEAT INDEX
  VSB - VISIBILITY




USA.gov is the U.S. government's official web portal to all federal, state and local government web resources and services.